This demonstration page uses our WeatherBlox Daily Observations layout. Learn more.

Left ArrowRight Arrow

Hourly Observations for October 9, 2022

Temp ( °F °C ) Dew Point ( °F °C ) Humidity (%) Winds ( mph kmh ) Pressure ( in mb ) Visibility ( mi km ) Precip ( " mm )
12:53 am 00:53 Clear 43 6.1 31 -0.6 62 62 Calm 30.17 1022 10 16 0.00 0.00
1:53 am 01:53 Clear 38 3.3 29 -1.7 70 70 WSW 9 15 30.16 1022 10 16 0.00 0.00
2:53 am 02:53 Clear 37 2.8 29 -1.7 72 72 SW 6 9 30.18 1022 10 16 0.00 0.00
3:53 am 03:53 Clear 40 4.4 31 -0.6 70 70 SSW 9 15 30.16 1022 10 16 0.00 0.00
4:53 am 04:53 Clear 36 2.2 30 -1.1 79 79 W 6 9 30.17 1022 10 16 0.00 0.00
5:53 am 05:53 Clear 34 1.1 29 -1.7 82 82 SW 7 11 30.18 1022 10 16 0.00 0.00
6:53 am 06:53 Clear 35 1.7 30 -1.1 82 82 W 6 9 30.19 1022 10 16 0.00 0.00
7:53 am 07:53 Sunny 34 1.1 31 -0.6 88 88 W 7 11 30.21 1023 10 16 0.00 0.00
8:53 am 08:53 Sunny 41 5 34 1.1 76 76 SW 6 9 30.22 1023 10 16 0.00 0.00
9:53 am 09:53 Sunny 50 10 39 3.9 66 66 SW 13 20 30.20 1023 10 16 0.00 0.00
10:53 am 10:53 Sunny 55 12.8 40 4.4 57 57 WSW 14 22 30.20 1023 10 16 0.00 0.00
11:53 am 11:53 Sunny 62 16.7 40 4.4 44 44 WSW 13 20 30.19 1022 10 16 0.00 0.00
12:53 pm 12:53 Sunny 65 18.3 37 2.8 36 36 W 7 11 30.18 1022 10 16 0.00 0.00
1:53 pm 13:53 Sunny 68 20 36 2.2 31 31 SW 8 13 30.15 1021 10 16 0.00 0.00
2:53 pm 14:53 Sunny 72 22.2 32 0 23 23 Calm 30.13 1020 10 16 0.00 0.00
3:53 pm 15:53 Sunny 73 22.8 32 0 22 22 Calm 30.11 1020 10 16 0.00 0.00
4:53 pm 16:53 Sunny 74 23.3 31 -0.6 20 20 WNW 3 6 30.10 1019 10 16 0.00 0.00
5:53 pm 17:53 Sunny 71 21.7 31 -0.6 23 23 Calm 30.10 1019 10 16 0.00 0.00
6:53 pm 18:53 Clear 61 16.1 31 -0.6 32 32 S 5 7 30.10 1019 10 16 0.00 0.00
7:53 pm 19:53 Clear 53 11.7 31 -0.6 43 43 S 12 19 30.11 1020 10 16 0.00 0.00
8:53 pm 20:53 Clear 54 12.2 32 0 43 43 S 10 17 30.09 1019 10 16 0.00 0.00
9:53 pm 21:53 Clear 49 9.4 32 0 52 52 W 3 6 30.08 1019 10 16 0.00 0.00
10:53 pm 22:53 Clear 46 7.8 31 -0.6 55 55 WSW 3 6 30.06 1018 10 16 0.00 0.00
11:53 pm 23:53 Clear 48 8.9 32 0 54 54 SW 5 7 30.03 1017 10 16 0.00 0.00

Powered by AerisWeather